OPS 4682 DEB, 38374

Orbit data source: Space-Track

OPS 4682 DEB, 38374 is space debris in LEO originally from a launch on Sat, 03 Apr 1965 UTC launched from the Air Force Western Test Range (AFWTR). Debris objects in space refer to the collection of defunct objects orbiting the Earth. Examples of debris include non-operational satellites, rocket bodies, and fragments generated from explosions, collisions, or faulty payload assembly.

Loading next visibility...
Identifier
38374, 1965-027CB
Orbit
LEO
Country
Flag of USUS
Related business
Manufacturer
Unknown
Mission
Spacecraft
Bus & Motor
Unknown
Mass
Unknown
Launch date (UTC)
1965-04-03 (61 years ago)
Launch vehicle
Unknown
Launch site
Air Force Western Test Range (AFWTR)
Object type
Payload
Rocket body
Debris
Shape & HBR
Unknown shape, 0.1 m
Radar Cross Section
Medium (>0.1 m² and <1 m²)

Expand to show TLE details & history
Last TLE update: 10 hours ago

TLE from 10 hours ago
0 OPS 4682 DEB
1 38374U 65027CB  26235.63237350  .00000168  00000-0  52218-3 0  9998
2 38374  90.2544  15.5725 0024071  44.4031 315.9016 13.01374238621406
Epoch: 2026-08-23T15:10Z
TLE epoch observation values (Epoch: 2026-08-23T15:10:37.070Z)
Latitude
-0.00007°
Longitude
175.9924°
Altitude
1,246.414 km
Speed
7.238 km/s
True Right ascension
01h 02m 17s
True Declination
0° 00' 00"
Sunlit
Object was in full shadow at epoch
Visualization orbit readout
Latitude
Unknown
Longitude
Unknown
Altitude
Unknown
Speed
Unknown
Apparent Right ascension
Unknown
Apparent Declination
Unknown
Sunlit
N/A
Visualization observer readout
Local Sidereal Time
16:03:02
Azimuth
Unknown
Elevation
Unknown
Doppler factor
Unknown
Orbital elements
Apogee altitude
1,272.203 km
Perigee altitude
1,235.461 km
Semi-major axis
7,631.969 km
Eccentricity
0.00241
Inclination
90.2544°
RAAN
15.5725°
Arg. of periapsis
44.4031°
True anomaly
315.70923°
Mean anomaly
315.9016°
Eccentric anomaly
315.80546°
Mean motion
3.25528 °/min
Orbital period
110.59 mins
BSTAR
0.00052218
Loading maneuver chart data...
Computing Atmospheric mass density...
Loading historical data...
Loading historical data...
Loading historical data...
Loading historical data...
Loading historical data...
Loading historical data...
Loading historical data...

Documentation

Showing up to 5 results
|